time, Switch, Flow(0), Analog(2)
yyyy/mm/dd HH:MM:SS.fff, True=FILTERED|False=TOTAL, L/min, V
2023/07/08 16:00:03.148, True, 4.311, 0.131075
2023/07/08 16:00:03.652, True, 3.647, 0.130465
2023/07/08 16:00:04.148, True, 2.359, 0.131151
2023/07/08 16:00:04.652, True, 0.995, 0.131380
2023/07/08 16:00:05.156, True, 0.995, 0.131228
2023/07/08 16:00:05.652, True, 0.674, 0.131380
2023/07/08 16:00:06.156, True, 0.995, 0.132296
2023/07/08 16:00:06.659, True, 0.663, 0.130617
2023/07/08 16:00:07.156, True, 0.674, 0.129320
2023/07/08 16:00:07.660, True, 0.663, 0.131914
2023/07/08 16:00:08.164, True, 0.663, 0.129778
2023/07/08 16:00:08.659, True, 0.674, 0.132448
2023/07/08 16:00:09.164, True, 0.663, 0.131075
2023/07/08 16:00:09.668, True, 0.663, 0.130846
2023/07/08 16:00:10.164, True, 0.675, 0.131838
2023/07/08 16:00:10.668, True, 0.663, 0.131304
2023/07/08 16:00:11.172, True, 0.663, 0.131151
2023/07/08 16:00:11.668, True, 0.675, 0.129473
2023/07/08 16:00:12.172, True, 0.662, 0.131075
2023/07/08 16:00:12.676, True, 0.663, 0.129168
2023/07/08 16:00:13.172, True, 1.011, 0.130159
2023/07/08 16:00:13.676, True, 0.663, 0.129473
2023/07/08 16:00:14.172, True, 0.674, 0.130846
2023/07/08 16:00:14.676, True, 0.663, 0.132830
2023/07/08 16:00:15.180, True, 0.663, 0.131380
2023/07/08 16:00:15.684, True, 0.663, 0.128786
2023/07/08 16:00:16.180, True, 0.674, 0.129168
2023/07/08 16:00:16.684, True, 0.663, 0.128786
2023/07/08 16:00:17.180, True, 0.674, 0.130465
2023/07/08 16:00:17.684, True, 0.663, 0.131762
2023/07/08 16:00:18.188, True, 0.663, 0.131685
2023/07/08 16:00:18.684, True, 0.674, 0.133745
2023/07/08 16:00:19.188, True, 0.663, 0.130999
2023/07/08 16:00:19.692, True, 0.995, 0.131151
2023/07/08 16:00:20.188, True, 0.674, 0.130388
2023/07/08 16:00:20.692, True, 0.663, 0.130388
2023/07/08 16:00:21.196, True, 0.663, 0.132448
2023/07/08 16:00:21.692, True, 0.674, 0.132143
2023/07/08 16:00:22.196, True, 0.663, 0.130846
2023/07/08 16:00:22.692, True, 0.674, 0.133059
2023/07/08 16:00:23.196, True, 0.663, 0.131533
2023/07/08 16:00:23.700, True, 0.663, 0.129473
2023/07/08 16:00:24.196, True, 0.674, 0.129320
2023/07/08 16:00:24.700, True, 0.664, 0.129625
2023/07/08 16:00:25.204, True, 0.662, 0.130159
2023/07/08 16:00:25.700, True, 0.674, 0.132219
2023/07/08 16:00:26.204, True, 0.663, 0.130770
2023/07/08 16:00:26.708, True, 0.663, 0.130312
2023/07/08 16:00:27.204, True, 0.674, 0.131228
2023/07/08 16:00:27.708, True, 0.664, 0.129854
2023/07/08 16:00:28.212, True, 0.662, 0.129549
2023/07/08 16:00:28.708, True, 0.674, 0.130159
2023/07/08 16:00:29.212, True, 0.663, 0.133364
2023/07/08 16:00:29.716, True, 0.663, 0.129091
2023/07/08 16:00:30.212, True, 0.674, 0.130846
2023/07/08 16:00:30.716, True, 0.663, 0.129473
2023/07/08 16:00:31.220, True, 0.663, 0.130617
2023/07/08 16:00:31.724, True, 0.663, 0.130541
2023/07/08 16:00:32.220, True, 0.674, 0.129549
2023/07/08 16:00:32.724, True, 0.663, 0.130236
2023/07/08 16:00:33.228, True, 0.663, 0.130694
2023/07/08 16:00:33.724, True, 0.674, 0.130541
2023/07/08 16:00:34.228, True, 0.663, 0.129778
2023/07/08 16:00:34.724, True, 0.674, 0.129931
2023/07/08 16:00:35.228, True, 0.663, 0.130083
2023/07/08 16:00:35.732, True, 0.663, 0.131914
2023/07/08 16:00:36.228, True, 0.674, 0.130770
2023/07/08 16:00:36.732, True, 0.663, 0.129473
2023/07/08 16:00:37.236, True, 0.663, 0.128481
2023/07/08 16:00:37.732, True, 0.674, 0.131151
2023/07/08 16:00:38.236, True, 0.663, 0.127260
2023/07/08 16:00:38.740, True, 0.664, 0.132753
2023/07/08 16:00:39.236, True, 0.673, 0.130312
2023/07/08 16:00:39.740, True, 0.663, 0.130694
2023/07/08 16:00:40.244, True, 0.663, 0.132067
2023/07/08 16:00:40.740, True, 0.674, 0.130999
2023/07/08 16:00:41.244, True, 0.663, 0.130922
2023/07/08 16:00:41.748, True, 0.663, 0.129473
2023/07/08 16:00:42.244, True, 0.674, 0.130617
2023/07/08 16:00:42.748, True, 0.664, 0.131304
2023/07/08 16:00:43.252, True, 0.663, 0.130999
2023/07/08 16:00:43.756, True, 0.663, 0.127489
2023/07/08 16:00:44.252, True, 0.674, 0.130617
2023/07/08 16:00:44.756, True, 0.663, 0.130694
2023/07/08 16:00:45.260, True, 0.664, 0.130922
2023/07/08 16:00:45.756, True, 0.674, 0.131075
2023/07/08 16:00:46.260, True, 0.663, 0.131075
2023/07/08 16:00:46.764, True, 0.663, 0.129320
2023/07/08 16:00:47.260, True, 0.675, 0.128481
2023/07/08 16:00:47.764, True, 0.663, 0.131075
2023/07/08 16:00:48.268, True, 0.663, 0.129702
2023/07/08 16:00:48.772, True, 0.664, 0.133135
2023/07/08 16:00:49.268, True, 1.009, 0.130083
2023/07/08 16:00:49.772, True, 0.663, 0.130541
2023/07/08 16:00:50.268, True, 0.674, 0.133669
2023/07/08 16:00:50.772, True, 0.663, 0.129625
2023/07/08 16:00:51.276, True, 0.663, 0.130312
2023/07/08 16:00:51.772, True, 0.674, 0.130007
2023/07/08 16:00:52.276, True, 0.663, 0.130007
2023/07/08 16:00:52.780, True, 0.663, 0.128862
2023/07/08 16:00:53.276, True, 0.674, 0.130236
2023/07/08 16:00:53.780, True, 0.663, 0.130922
2023/07/08 16:00:54.284, True, 0.663, 0.130617
2023/07/08 16:00:54.780, True, 0.674, 0.132601
2023/07/08 16:00:55.284, True, 0.663, 0.133745
2023/07/08 16:00:55.780, True, 0.674, 0.130922
2023/07/08 16:00:56.284, True, 0.664, 0.129625
2023/07/08 16:00:56.788, True, 0.663, 0.130770
2023/07/08 16:00:57.292, True, 0.663, 0.129625
2023/07/08 16:00:57.788, True, 0.674, 0.131380
2023/07/08 16:00:58.292, True, 0.663, 0.130159
2023/07/08 16:00:58.788, True, 0.674, 0.132601
2023/07/08 16:00:59.292, True, 0.663, 0.132830
2023/07/08 16:00:59.796, True, 0.663, 0.131609
2023/07/08 16:01:00.292, True, 0.674, 0.130465
2023/07/08 16:01:00.796, True, 0.664, 0.129397
2023/07/08 16:01:01.300, True, 0.663, 0.131609
2023/07/08 16:01:01.804, True, 0.663, 0.131456
2023/07/08 16:01:02.300, True, 0.674, 0.132448
2023/07/08 16:01:02.804, True, 0.663, 0.131533
2023/07/08 16:01:03.308, True, 0.663, 0.131991
2023/07/08 16:01:03.804, True, 0.674, 0.129931
2023/07/08 16:01:04.308, True, 0.663, 0.129397
2023/07/08 16:01:04.812, True, 0.995, 0.129168
2023/07/08 16:01:05.308, True, 0.675, 0.131456
2023/07/08 16:01:05.812, True, 0.662, 0.131075
2023/07/08 16:01:06.316, True, 0.664, 0.129931
2023/07/08 16:01:06.812, True, 0.673, 0.131151
2023/07/08 16:01:07.316, True, 0.663, 0.131228
2023/07/08 16:01:07.821, True, 0.663, 0.130388
2023/07/08 16:01:08.316, True, 0.674, 0.129931
2023/07/08 16:01:08.820, True, 0.663, 0.130541
2023/07/08 16:01:09.324, True, 0.663, 0.130617
2023/07/08 16:01:09.828, True, 0.663, 0.130312
2023/07/08 16:01:10.324, True, 0.674, 0.131609
2023/07/08 16:01:10.828, True, 0.996, 0.131991
2023/07/08 16:01:11.324, True, 0.673, 0.129320
2023/07/08 16:01:11.828, True, 0.663, 0.131838
2023/07/08 16:01:12.332, True, 0.663, 0.132296
2023/07/08 16:01:12.828, True, 0.674, 0.130388
2023/07/08 16:01:13.332, True, 0.663, 0.131533
2023/07/08 16:01:13.836, True, 0.663, 0.133059
2023/07/08 16:01:14.332, True, 0.674, 0.129091
2023/07/08 16:01:14.836, True, 0.332, 0.128862
2023/07/08 16:01:15.340, True, 0.994, 0.132296
2023/07/08 16:01:15.836, True, 0.674, 0.130236
2023/07/08 16:01:16.340, True, 0.664, 0.131685
2023/07/08 16:01:16.844, True, 0.331, 0.130388
2023/07/08 16:01:17.340, True, 0.674, 0.130617
2023/07/08 16:01:17.844, True, 0.664, 0.131228
2023/07/08 16:01:18.348, True, 0.663, 0.133898
2023/07/08 16:01:18.844, True, 0.674, 0.129702
2023/07/08 16:01:19.348, True, 0.664, 0.133059
2023/07/08 16:01:19.852, True, 0.994, 0.132067
2023/07/08 16:01:20.348, True, 0.674, 0.130388
2023/07/08 16:01:20.852, True, 0.664, 0.131075
2023/07/08 16:01:21.356, True, 0.662, 0.132982
2023/07/08 16:01:21.852, True, 0.674, 0.133211
2023/07/08 16:01:22.356, True, 0.663, 0.132219
2023/07/08 16:01:22.860, True, 0.663, 0.132219
2023/07/08 16:01:23.356, True, 0.674, 0.131685
2023/07/08 16:01:23.860, True, 0.664, 0.132753
2023/07/08 16:01:24.364, True, 0.662, 0.133440
2023/07/08 16:01:24.860, True, 1.011, 0.131685
2023/07/08 16:01:25.364, True, 0.664, 0.133974
2023/07/08 16:01:25.868, True, 0.663, 0.130541
2023/07/08 16:01:26.364, True, 0.673, 0.132601
2023/07/08 16:01:26.868, True, 0.664, 0.131380
2023/07/08 16:01:27.364, True, 0.336, 0.134585
2023/07/08 16:01:27.868, True, 0.663, 0.134432
2023/07/08 16:01:28.372, True, 0.663, 0.133745
2023/07/08 16:01:28.876, True, 0.997, 0.134432
2023/07/08 16:01:29.380, True, 0.331, 0.132601
2023/07/08 16:01:29.876, True, 0.674, 0.134661
2023/07/08 16:01:30.380, True, 0.663, 0.132143
2023/07/08 16:01:30.884, True, 0.995, 0.136492
2023/07/08 16:01:31.380, True, 0.337, 0.135958
2023/07/08 16:01:31.884, True, 0.663, 0.134661
2023/07/08 16:01:32.388, True, 0.996, 0.135119
2023/07/08 16:01:32.884, True, 0.673, 0.133440
2023/07/08 16:01:33.388, True, 0.663, 0.132525
2023/07/08 16:01:33.892, True, 0.663, 0.132830
2023/07/08 16:01:34.388, True, 0.674, 0.134737
2023/07/08 16:01:34.892, True, 0.663, 0.133288
2023/07/08 16:01:35.396, True, 0.663, 0.133440
2023/07/08 16:01:35.892, True, 0.337, 0.132219
2023/07/08 16:01:36.396, True, 0.663, 0.134890
2023/07/08 16:01:36.900, True, 0.663, 0.134203
2023/07/08 16:01:37.404, True, 0.663, 0.132372
2023/07/08 16:01:37.900, True, 0.674, 0.133364
2023/07/08 16:01:38.404, True, 0.663, 0.134508
2023/07/08 16:01:38.908, True, 0.663, 0.135653
2023/07/08 16:01:39.403, True, 1.011, 0.135195
2023/07/08 16:01:39.908, True, 0.332, 0.133898
2023/07/08 16:01:40.412, True, 0.662, 0.132601
2023/07/08 16:01:40.908, True, 0.674, 0.135500
2023/07/08 16:01:41.412, True, 0.663, 0.135805
2023/07/08 16:01:41.908, True, 0.674, 0.136034
2023/07/08 16:01:42.412, True, 0.663, 0.135119
2023/07/08 16:01:42.916, True, 0.663, 0.136187
2023/07/08 16:01:43.420, True, 0.663, 0.135195
2023/07/08 16:01:43.916, True, 0.674, 0.137026
2023/07/08 16:01:44.420, True, 0.663, 0.134661
2023/07/08 16:01:44.924, True, 0.663, 0.135882
2023/07/08 16:01:45.420, True, 0.674, 0.136187
2023/07/08 16:01:45.924, True, 0.663, 0.138170
2023/07/08 16:01:46.428, True, 0.663, 0.137789
2023/07/08 16:01:46.924, True, 1.011, 0.137331
2023/07/08 16:01:47.428, True, 0.663, 0.136339
2023/07/08 16:01:47.932, True, 0.663, 0.137179
2023/07/08 16:01:48.428, True, 0.674, 0.136950
2023/07/08 16:01:48.932, True, 0.663, 0.138247
2023/07/08 16:01:49.436, True, 0.663, 0.136873
2023/07/08 16:01:49.933, True, 0.674, 0.136950
2023/07/08 16:01:50.436, True, 0.663, 0.138323
2023/07/08 16:01:50.932, True, 0.674, 0.136873
2023/07/08 16:01:51.436, True, 0.663, 0.136492
2023/07/08 16:01:51.940, True, 0.663, 0.136416
2023/07/08 16:01:52.436, True, 0.674, 0.137789
2023/07/08 16:01:52.940, True, 0.663, 0.138323
2023/07/08 16:01:53.444, True, 0.664, 0.136950
2023/07/08 16:01:53.940, True, 0.673, 0.135653
2023/07/08 16:01:54.444, True, 0.663, 0.138094
2023/07/08 16:01:54.948, True, 0.663, 0.136873
2023/07/08 16:01:55.444, True, 0.674, 0.138628
2023/07/08 16:01:55.948, True, 0.663, 0.137484
2023/07/08 16:01:56.452, True, 0.663, 0.136187
2023/07/08 16:01:56.948, True, 0.674, 0.137407
2023/07/08 16:01:57.452, True, 0.663, 0.137789
2023/07/08 16:01:57.956, True, 0.663, 0.139315
2023/07/08 16:01:58.452, True, 0.674, 0.136339
2023/07/08 16:01:58.956, True, 0.663, 0.136492
2023/07/08 16:01:59.452, True, 0.674, 0.136873
2023/07/08 16:01:59.956, True, 0.663, 0.136797
2023/07/08 16:02:00.460, True, 0.663, 0.138170
2023/07/08 16:02:00.956, True, 0.674, 0.138018
2023/07/08 16:02:01.460, True, 0.663, 0.136339
2023/07/08 16:02:01.964, True, 0.663, 0.137484
2023/07/08 16:02:02.460, True, 0.674, 0.137484
2023/07/08 16:02:02.964, True, 0.663, 0.138018
2023/07/08 16:02:03.460, True, 0.674, 0.136416
2023/07/08 16:02:03.964, True, 0.663, 0.136339
2023/07/08 16:02:04.468, True, 0.663, 0.135348
2023/07/08 16:02:04.964, True, 0.674, 0.136950
2023/07/08 16:02:05.468, True, 0.663, 0.137102
2023/07/08 16:02:05.972, True, 0.663, 0.134890
2023/07/08 16:02:06.468, True, 0.674, 0.136721
2023/07/08 16:02:06.972, True, 0.663, 0.137331
2023/07/08 16:02:07.476, True, 0.663, 0.138323
2023/07/08 16:02:07.972, True, 0.674, 0.136797
2023/07/08 16:02:08.476, True, 0.663, 0.138247
2023/07/08 16:02:08.980, True, 0.663, 0.136797
2023/07/08 16:02:09.476, True, 0.674, 0.136339
2023/07/08 16:02:09.980, True, 0.664, 0.137636
2023/07/08 16:02:10.484, True, 0.662, 0.138323
2023/07/08 16:02:10.980, True, 0.674, 0.136034
2023/07/08 16:02:11.484, True, 0.663, 0.137179
2023/07/08 16:02:11.988, True, 0.663, 0.137484
2023/07/08 16:02:12.484, True, 0.674, 0.136034
2023/07/08 16:02:12.988, True, 0.663, 0.138628
2023/07/08 16:02:13.492, True, 0.663, 0.136492
2023/07/08 16:02:13.988, True, 0.674, 0.137560
2023/07/08 16:02:14.492, True, 0.663, 0.137789
2023/07/08 16:02:14.996, True, 0.663, 0.138628
2023/07/08 16:02:15.492, True, 0.674, 0.136034
2023/07/08 16:02:15.996, True, 0.663, 0.139010
2023/07/08 16:02:16.492, True, 0.674, 0.137713
2023/07/08 16:02:16.996, True, 0.663, 0.137407
2023/07/08 16:02:17.500, True, 0.663, 0.138170
2023/07/08 16:02:17.996, True, 0.674, 0.137713
2023/07/08 16:02:18.500, True, 0.663, 0.137942
2023/07/08 16:02:19.004, True, 0.663, 0.137407
2023/07/08 16:02:19.500, True, 0.674, 0.136797
2023/07/08 16:02:20.004, True, 0.663, 0.136187
2023/07/08 16:02:20.508, True, 0.664, 0.138476
2023/07/08 16:02:21.004, True, 0.674, 0.138323
2023/07/08 16:02:21.508, True, 0.663, 0.136797
2023/07/08 16:02:22.012, True, 0.663, 0.136416
2023/07/08 16:02:22.508, True, 0.674, 0.138399
2023/07/08 16:02:23.012, True, 0.663, 0.139162
2023/07/08 16:02:23.508, True, 0.674, 0.136950
2023/07/08 16:02:24.012, True, 0.663, 0.136797
2023/07/08 16:02:24.516, True, 0.663, 0.139315
2023/07/08 16:02:25.012, True, 0.674, 0.140154
2023/07/08 16:02:25.516, True, 0.664, 0.136034
2023/07/08 16:02:26.020, True, 0.664, 0.135729
2023/07/08 16:02:26.516, True, 0.673, 0.136797
2023/07/08 16:02:27.020, True, 0.663, 0.139239
2023/07/08 16:02:27.524, True, 0.332, 0.140002
2023/07/08 16:02:28.027, True, 0.993, 0.137255
2023/07/08 16:02:28.524, True, 0.674, 0.137560
2023/07/08 16:02:29.028, True, 0.663, 0.136568
2023/07/08 16:02:29.532, True, 0.332, 0.137484
2023/07/08 16:02:30.028, True, 0.674, 0.136339
2023/07/08 16:02:30.532, True, 0.663, 0.137942
2023/07/08 16:02:31.036, True, 0.663, 0.139925
2023/07/08 16:02:31.532, True, 0.674, 0.138933
2023/07/08 16:02:32.036, True, 0.663, 0.139467
2023/07/08 16:02:32.540, True, 0.664, 0.138933
2023/07/08 16:02:33.036, True, 0.673, 0.137865
2023/07/08 16:02:33.540, True, 0.664, 0.139391
2023/07/08 16:02:34.044, True, 0.663, 0.138781
2023/07/08 16:02:34.540, True, 0.674, 0.137789
2023/07/08 16:02:35.044, True, 0.663, 0.140230
2023/07/08 16:02:35.548, True, 0.663, 0.137484
2023/07/08 16:02:36.044, True, 0.674, 0.137484
2023/07/08 16:02:36.548, True, 0.663, 0.138781
2023/07/08 16:02:37.052, True, 0.663, 0.139162
2023/07/08 16:02:37.548, True, 0.674, 0.138018
2023/07/08 16:02:38.052, True, 0.663, 0.137865
2023/07/08 16:02:38.556, True, 0.663, 0.139925
2023/07/08 16:02:39.052, True, 0.675, 0.138628
2023/07/08 16:02:39.556, True, 0.663, 0.138552
2023/07/08 16:02:40.060, True, 0.663, 0.137331
2023/07/08 16:02:40.556, True, 0.675, 0.138552
2023/07/08 16:02:41.060, True, 0.662, 0.137331
2023/07/08 16:02:41.564, True, 0.663, 0.139086
2023/07/08 16:02:42.060, True, 0.674, 0.138781
2023/07/08 16:02:42.564, True, 0.663, 0.136568
2023/07/08 16:02:43.068, True, 0.663, 0.137865
2023/07/08 16:02:43.564, True, 0.674, 0.137636
2023/07/08 16:02:44.068, True, 0.663, 0.140841
2023/07/08 16:02:44.572, True, 0.663, 0.136721
2023/07/08 16:02:45.068, True, 0.674, 0.137713
2023/07/08 16:02:45.572, True, 0.663, 0.138247
2023/07/08 16:02:46.076, True, 0.663, 0.135271
2023/07/08 16:02:46.572, True, 0.674, 0.138094
2023/07/08 16:02:47.076, True, 0.663, 0.137026
2023/07/08 16:02:47.580, True, 0.663, 0.138399
2023/07/08 16:02:48.076, True, 0.675, 0.138018
2023/07/08 16:02:48.580, True, 0.662, 0.138476
2023/07/08 16:02:49.084, True, 0.995, 0.136492
2023/07/08 16:02:49.588, True, 0.664, 0.137026
2023/07/08 16:02:50.084, True, 0.673, 0.137102
2023/07/08 16:02:50.588, True, 0.663, 0.138781
2023/07/08 16:02:51.092, True, 0.664, 0.138628
2023/07/08 16:02:51.588, True, 0.673, 0.139620
2023/07/08 16:02:52.092, True, 0.663, 0.137789
2023/07/08 16:02:52.588, True, 0.337, 0.135271
2023/07/08 16:02:53.092, True, 0.663, 0.136339
2023/07/08 16:02:53.596, True, 0.995, 0.137407
2023/07/08 16:02:54.100, True, 0.332, 0.138323
2023/07/08 16:02:54.596, True, 0.673, 0.136492
2023/07/08 16:02:55.100, True, 0.663, 0.138094
2023/07/08 16:02:55.604, True, 0.663, 0.139315
2023/07/08 16:02:56.100, True, 0.674, 0.137636
2023/07/08 16:02:56.604, True, 0.663, 0.139620
2023/07/08 16:02:57.108, True, 0.663, 0.137026
2023/07/08 16:02:57.604, True, 0.674, 0.138552
2023/07/08 16:02:58.108, True, 0.663, 0.138628
2023/07/08 16:02:58.604, True, 0.674, 0.138857
2023/07/08 16:02:59.108, True, 0.664, 0.136797
2023/07/08 16:02:59.612, True, 0.663, 0.139925
2023/07/08 16:03:00.108, True, 0.674, 0.138018
2023/07/08 16:03:00.612, True, 0.663, 0.138933
2023/07/08 16:03:01.116, True, 0.663, 0.138628
2023/07/08 16:03:01.620, True, 0.664, 0.136492
2023/07/08 16:03:02.116, True, 0.674, 0.138018
2023/07/08 16:03:02.620, True, 0.662, 0.138018
2023/07/08 16:03:03.124, True, 0.664, 0.138857
2023/07/08 16:03:03.620, True, 0.675, 0.137560
2023/07/08 16:03:04.124, True, 0.662, 0.137942
2023/07/08 16:03:04.628, True, 0.663, 0.138552
2023/07/08 16:03:05.124, True, 0.674, 0.137102
2023/07/08 16:03:05.628, True, 0.664, 0.136721
2023/07/08 16:03:06.132, True, 0.663, 0.138399
2023/07/08 16:03:06.628, True, 0.336, 0.134966
2023/07/08 16:03:07.132, True, 0.663, 0.138170
2023/07/08 16:03:07.628, True, 1.013, 0.138552
2023/07/08 16:03:08.132, True, 0.663, 0.138018
2023/07/08 16:03:08.636, True, 0.662, 0.138476
2023/07/08 16:03:09.132, True, 0.674, 0.136873
2023/07/08 16:03:09.637, True, 0.663, 0.137865
2023/07/08 16:03:10.140, True, 0.664, 0.138857
2023/07/08 16:03:10.636, True, 0.673, 0.139086
2023/07/08 16:03:11.140, True, 0.663, 0.136416
2023/07/08 16:03:11.644, True, 0.663, 0.137789
2023/07/08 16:03:12.140, True, 0.337, 0.136263
2023/07/08 16:03:12.644, True, 0.663, 0.136950
2023/07/08 16:03:13.147, True, 0.663, 0.137865
2023/07/08 16:03:13.644, True, 0.674, 0.137942
2023/07/08 16:03:14.148, True, 0.664, 0.137484
2023/07/08 16:03:14.652, True, 0.663, 0.139391
2023/07/08 16:03:15.148, True, 0.674, 0.137484
2023/07/08 16:03:15.652, True, 0.663, 0.137713
2023/07/08 16:03:16.156, True, 0.663, 0.135500
2023/07/08 16:03:16.652, True, 0.674, 0.137026
2023/07/08 16:03:17.156, True, 0.995, 0.137331
2023/07/08 16:03:17.660, True, 0.663, 0.138323
2023/07/08 16:03:18.156, True, 0.674, 0.138170
2023/07/08 16:03:18.660, True, 0.663, 0.136721
2023/07/08 16:03:19.164, True, 0.663, 0.138399
2023/07/08 16:03:19.660, True, 0.674, 0.136110
2023/07/08 16:03:20.164, True, 0.663, 0.137331
2023/07/08 16:03:20.668, True, 0.663, 0.137560
2023/07/08 16:03:21.164, True, 0.675, 0.138247
2023/07/08 16:03:21.668, True, 0.662, 0.139162
2023/07/08 16:03:22.172, True, 0.663, 0.137636
2023/07/08 16:03:22.668, True, 0.674, 0.137255
2023/07/08 16:03:23.172, True, 0.663, 0.137331
2023/07/08 16:03:23.676, True, 0.663, 0.135882
2023/07/08 16:03:24.172, True, 0.674, 0.139315
2023/07/08 16:03:24.676, True, 0.663, 0.139162
2023/07/08 16:03:25.180, True, 0.663, 0.139162
2023/07/08 16:03:25.676, True, 0.674, 0.138247
2023/07/08 16:03:26.180, True, 0.663, 0.136339
2023/07/08 16:03:26.684, True, 0.663, 0.138323
2023/07/08 16:03:27.180, True, 0.674, 0.138018
2023/07/08 16:03:27.684, True, 0.663, 0.137713
2023/07/08 16:03:28.188, True, 0.995, 0.139696
2023/07/08 16:03:28.684, True, 0.674, 0.139086
2023/07/08 16:03:29.188, True, 0.331, 0.136797
2023/07/08 16:03:29.684, True, 1.011, 0.138476
2023/07/08 16:03:30.188, True, 0.663, 0.138094
2023/07/08 16:03:30.693, True, 0.332, 0.138018
2023/07/08 16:03:31.188, True, 0.674, 0.137636
2023/07/08 16:03:31.692, True, 0.663, 0.138018
2023/07/08 16:03:32.196, True, 0.664, 0.137407
2023/07/08 16:03:32.692, True, 0.673, 0.136034
2023/07/08 16:03:33.196, True, 0.664, 0.140383
2023/07/08 16:03:33.700, True, 0.662, 0.137407
2023/07/08 16:03:34.204, True, 0.664, 0.138399
2023/07/08 16:03:34.700, True, 0.673, 0.138170
2023/07/08 16:03:35.204, True, 0.663, 0.138170
2023/07/08 16:03:35.700, True, 0.674, 0.136187
2023/07/08 16:03:36.204, True, 0.663, 0.136416
2023/07/08 16:03:36.708, True, 0.332, 0.138476
2023/07/08 16:03:37.204, True, 0.674, 0.136950
2023/07/08 16:03:37.708, True, 0.664, 0.137255
2023/07/08 16:03:38.212, True, 0.993, 0.137636
2023/07/08 16:03:38.708, True, 0.674, 0.137560
2023/07/08 16:03:39.212, True, 0.663, 0.139925
2023/07/08 16:03:39.716, True, 0.663, 0.136263
2023/07/08 16:03:40.212, True, 0.337, 0.136721
2023/07/08 16:03:40.716, True, 0.995, 0.138476
2023/07/08 16:03:41.212, True, 0.674, 0.137713
2023/07/08 16:03:41.716, True, 0.663, 0.137407
2023/07/08 16:03:42.220, True, 0.664, 0.139086
2023/07/08 16:03:42.717, True, 0.673, 0.136187
2023/07/08 16:03:43.220, True, 0.663, 0.136339
2023/07/08 16:03:43.724, True, 0.332, 0.137026
2023/07/08 16:03:44.220, True, 0.674, 0.137026
2023/07/08 16:03:44.724, True, 0.995, 0.137179
2023/07/08 16:03:45.220, True, 0.674, 0.137560
2023/07/08 16:03:45.724, True, 0.663, 0.139315
2023/07/08 16:03:46.228, True, 0.663, 0.137102
2023/07/08 16:03:46.724, True, 0.674, 0.140002
2023/07/08 16:03:47.228, True, 0.663, 0.137179
2023/07/08 16:03:47.732, True, 0.663, 0.137026
2023/07/08 16:03:48.236, True, 0.663, 0.137179
2023/07/08 16:03:48.732, True, 0.674, 0.137560
2023/07/08 16:03:49.236, True, 0.663, 0.137331
2023/07/08 16:03:49.740, True, 0.663, 0.137865
2023/07/08 16:03:50.237, True, 0.674, 0.137789
2023/07/08 16:03:50.740, True, 0.663, 0.137789
2023/07/08 16:03:51.244, True, 0.663, 0.139162
2023/07/08 16:03:51.740, True, 0.674, 0.136187
2023/07/08 16:03:52.244, True, 0.663, 0.137789
2023/07/08 16:03:52.748, True, 0.663, 0.136034
2023/07/08 16:03:53.244, True, 0.674, 0.137102
2023/07/08 16:03:53.748, True, 0.663, 0.137179
2023/07/08 16:03:54.252, True, 0.663, 0.140612
2023/07/08 16:03:54.748, True, 0.674, 0.138628
2023/07/08 16:03:55.253, True, 0.663, 0.136416
2023/07/08 16:03:55.756, True, 0.995, 0.135424
2023/07/08 16:03:56.252, True, 0.674, 0.138781
2023/07/08 16:03:56.756, True, 0.663, 0.137789
2023/07/08 16:03:57.260, True, 0.663, 0.140764
2023/07/08 16:03:57.756, True, 0.674, 0.135042
2023/07/08 16:03:58.260, True, 0.663, 0.137789
2023/07/08 16:03:58.764, True, 0.663, 0.137865
2023/07/08 16:03:59.260, True, 0.674, 0.138857
2023/07/08 16:03:59.764, True, 0.663, 0.138094
2023/07/08 16:04:00.261, True, 0.337, 0.136645
2023/07/08 16:04:00.764, True, 0.995, 0.138170
2023/07/08 16:04:01.269, True, 0.663, 0.136721
2023/07/08 16:04:01.764, True, 0.337, 0.137560
2023/07/08 16:04:02.269, True, 0.995, 0.137865
2023/07/08 16:04:02.772, True, 0.663, 0.138323
2023/07/08 16:04:03.269, True, 0.674, 0.136263
2023/07/08 16:04:03.772, True, 0.664, 0.137255
2023/07/08 16:04:04.277, True, 0.662, 0.135805
2023/07/08 16:04:04.772, True, 0.674, 0.136187
2023/07/08 16:04:05.277, True, 0.663, 0.136797
2023/07/08 16:04:05.781, True, 0.663, 0.138018
2023/07/08 16:04:06.276, True, 0.674, 0.138399
2023/07/08 16:04:06.781, True, 0.663, 0.138170
2023/07/08 16:04:07.285, True, 0.663, 0.136568
2023/07/08 16:04:07.781, True, 0.674, 0.136645
2023/07/08 16:04:08.285, True, 0.663, 0.137713
2023/07/08 16:04:08.789, True, 0.663, 0.137636
2023/07/08 16:04:09.285, True, 0.674, 0.138933
2023/07/08 16:04:09.789, True, 0.663, 0.136110
2023/07/08 16:04:10.293, True, 0.663, 0.136950
2023/07/08 16:04:10.789, True, 1.011, 0.135958
2023/07/08 16:04:11.293, True, 0.663, 0.139010
2023/07/08 16:04:11.789, True, 0.674, 0.137026
2023/07/08 16:04:12.293, True, 0.663, 0.135729